Weather History for CYBN - March, 2014

Change the Weather History Date:

Friday, March 28, 2014

  Actual Average Record
Temperature  
Mean Temperature 38 °F -  
Max Temperature 44 °F 49 °F 60 °F (2003)
Min Temperature 32 °F 29 °F 6 °F (2015)
Degree Days  
Heating Degree Days 27    
Moisture  
Dew Point 36 °F    
Average Humidity 95    
Maximum Humidity 100    
Minimum Humidity 76    
Precipitation  
Precipitation 0.16 in - - ()
Sea Level Pressure  
Sea Level Pressure 29.73 in    
Wind  
Wind Speed 11 mph ()    
Max Wind Speed 16 mph    
Max Gust Speed 23 mph    
Visibility 6.8 miles    
Events Rain    
Averages and records for this station are not official NWS values.
T = Trace of Precipitation, MM = Missing Value Source: Averaged Metar Reports

Daily Weather History Graph

Daily Weather History Graph

Search for Another Location

Airport or City:

Trip Planner

Search our weather history database for the weather conditions in past years. The results will help you decide how hot, cold, wet, or windy it might be!

Date:

Astronomy

Mar. 28, 2014 Rise Set
Actual Time 7:08 AM EDT 7:41 PM EDT
Civil Twilight 6:39 AM EDT 8:11 PM EDT
Nautical Twilight 6:04 AM EDT 8:45 PM EDT
Astronomical Twilight 5:29 AM EDT 9:21 PM EDT
Moon 5:43 AM EDT 5:32 PM EDT
Length of Visible Light 13h 32m
Length of Day
12h 33m
Waning Crescent, 6% of the Moon is Illuminated
Mar 28
Waning Crescent
Mar 30
New
Apr 7
First Quarter
Apr 15
Full
Apr 22
Last Quarter

Hourly Weather History & Observations

Time (EDT) Temp. Windchill Dew Point Humidity Pressure Visibility Wind Dir Wind Speed Gust Speed Precip Events Conditions
12:00 AM 33.8 °F 26.4 °F 32.0 °F 93% 29.82 in 6.0 mi SE 9.2 mph - N/A   Overcast
12:08 AM 33.8 °F 26.4 °F 33.8 °F 100% 29.79 in 6.0 mi SE 9.2 mph - N/A Rain Light Rain
12:24 AM 35.6 °F 27.5 °F 33.8 °F 93% 29.78 in 6.0 mi SE 11.5 mph - N/A   Overcast
1:00 AM 35.6 °F 27.5 °F 33.8 °F 93% 29.79 in 7.0 mi SE 11.5 mph - N/A   Overcast
1:55 AM 35.6 °F 26.2 °F 33.8 °F 93% 29.72 in 9.0 mi SSE 15.0 mph 23.0 mph N/A   Overcast
2:00 AM 36 °F - 34 °F 89% 29.75 in 9 mi SSE 15.0 mph - - Rain Light Rain
2:00 AM 35.6 °F 26.2 °F 33.8 °F 93% 29.75 in 9.0 mi SSE 15.0 mph - N/A   Overcast
2:07 AM 35.6 °F 26.6 °F 33.8 °F 93% 29.72 in 9.0 mi SSE 13.8 mph 20.7 mph N/A Rain Light Rain
2:11 AM 35.6 °F 27.5 °F 33.8 °F 93% 29.73 in 9.0 mi SSE 11.5 mph 20.7 mph N/A   Overcast
2:20 AM 35.6 °F 27.1 °F 33.8 °F 93% 29.73 in 9.0 mi South 12.7 mph 20.7 mph N/A Rain Light Rain
3:00 AM 35.6 °F 26.2 °F 33.8 °F 93% 29.72 in 6.0 mi SSE 15.0 mph - N/A Rain Light Rain
3:27 AM 35.6 °F 26.2 °F 35.6 °F 100% 29.68 in 7.0 mi SSE 15.0 mph - N/A   Overcast
3:36 AM 35.6 °F 25.9 °F 35.6 °F 100% 29.67 in 6.0 mi SSE 16.1 mph - N/A Rain Light Rain
4:00 AM 35.6 °F 28.0 °F 35.6 °F 100% 29.68 in 4.0 mi SSE 10.4 mph - N/A Rain Light Rain
4:22 AM 35.6 °F 27.1 °F 35.6 °F 100% 29.65 in 5.0 mi SSE 12.7 mph - N/A Rain Light Rain
4:28 AM 35.6 °F 27.1 °F 35.6 °F 100% 29.65 in 5.0 mi SSE 12.7 mph - N/A Rain Light Rain
4:52 AM 35.6 °F 27.1 °F 35.6 °F 100% 29.64 in 7.0 mi SE 12.7 mph - N/A   Overcast
4:56 AM 35.6 °F 27.1 °F 35.6 °F 100% 29.64 in 7.0 mi SE 12.7 mph 18.4 mph N/A   Overcast
5:00 AM 35.6 °F 26.6 °F 35.6 °F 100% 29.67 in 6.0 mi SSE 13.8 mph - N/A Rain Light Rain
5:03 AM 35.6 °F 27.1 °F 35.6 °F 100% 29.64 in 6.0 mi SE 12.7 mph 18.4 mph N/A Rain Light Rain
5:19 AM 35.6 °F 27.1 °F 35.6 °F 100% 29.64 in 4.0 mi SSE 12.7 mph - N/A   Overcast
5:33 AM 35.6 °F 27.5 °F 35.6 °F 100% 29.63 in 4.0 mi SE 11.5 mph - N/A Rain Light Rain
6:00 AM 35.6 °F 27.1 °F 35.6 °F 100% 29.64 in 4.0 mi SE 12.7 mph - N/A Rain Light Rain
7:00 AM 35.6 °F 27.5 °F 35.6 °F 100% 29.64 in 3.0 mi SSE 11.5 mph - N/A Rain Light Rain
7:11 AM 35.6 °F 28.0 °F 35.6 °F 100% 29.61 in 4.0 mi SE 10.4 mph - N/A   Overcast
7:33 AM 37.4 °F 30.3 °F 35.6 °F 93% 29.60 in 4.0 mi SE 10.4 mph - N/A Rain Light Rain
7:35 AM 37.4 °F 30.8 °F 35.6 °F 93% 29.60 in 4.0 mi SE 9.2 mph - N/A   Mostly Cloudy
7:45 AM 37.4 °F 30.3 °F 35.6 °F 93% 29.59 in 4.0 mi SE 10.4 mph - N/A   Overcast
8:00 AM 36 °F - 36 °F 100% 29.62 in 5 mi SE 8.1 mph - -   Clear
8:00 AM 37.4 °F 32.1 °F 35.6 °F 93% 29.62 in 5.0 mi SSE 6.9 mph - N/A   Overcast
8:11 AM 37.4 °F 30.8 °F 37.4 °F 100% 29.59 in 6.0 mi SSE 9.2 mph - N/A Rain Light Rain
8:27 AM 41.0 °F 33.9 °F 37.4 °F 87% 29.59 in 9.0 mi South 12.7 mph - N/A   Overcast
9:00 AM 41.0 °F 33.5 °F 39.2 °F 93% 29.60 in 9.0 mi South 13.8 mph - N/A   Overcast
10:00 AM 42.8 °F 36.6 °F 41.0 °F 93% 29.60 in 9.0 mi South 11.5 mph - N/A   Overcast
11:00 AM 42.8 °F 37.5 °F 41.0 °F 93% 29.61 in 9.0 mi SSE 9.2 mph - N/A   Overcast
12:00 PM 42.8 °F 37.0 °F 41.0 °F 93% 29.63 in 9.0 mi South 10.4 mph - N/A   Overcast
1:00 PM 42.8 °F 37.0 °F 41.0 °F 93% 29.63 in 8.0 mi South 10.4 mph - N/A   Overcast
1:18 PM 41.0 °F 35.8 °F 41.0 °F 100% 29.62 in 5.0 mi SSW 8.1 mph - N/A   Overcast
1:21 PM 41.0 °F 35.8 °F 41.0 °F 100% 29.62 in 5.0 mi SSW 8.1 mph - N/A Rain Light Rain
2:00 PM 42 °F - 42 °F 99% 29.65 in 3 mi SW 9.2 mph - - Rain Light Rain
2:00 PM 41.0 °F 35.2 °F 41.0 °F 100% 29.65 in 3.0 mi SW 9.2 mph - N/A Rain Light Rain
2:20 PM 42.8 °F 38.0 °F 42.8 °F 100% 29.63 in 5.0 mi WSW 8.1 mph - N/A Rain Light Rain
2:27 PM 42.8 °F 39.3 °F 42.8 °F 100% 29.64 in 3.0 mi West 5.8 mph - N/A Rain Light Rain
2:35 PM 41.0 °F 33.9 °F 41.0 °F 100% 29.65 in 3.0 mi North 12.7 mph - N/A Rain Light Rain
2:36 PM 41.0 °F 33.1 °F 41.0 °F 100% 29.65 in 4.0 mi North 15.0 mph - N/A Rain Light Rain
2:47 PM 39.2 °F 33.0 °F 39.2 °F 100% 29.67 in 5.0 mi NNW 9.2 mph 20.7 mph N/A Rain Light Rain
2:59 PM 37.4 °F 32.1 °F 37.4 °F 100% 29.68 in 8.0 mi NNW 6.9 mph - N/A Rain Light Rain
3:00 PM 37.4 °F 32.1 °F 37.4 °F 100% 29.71 in 8.0 mi NW 6.9 mph - N/A Rain Light Rain
3:03 PM 37.4 °F 30.3 °F 37.4 °F 100% 29.68 in 8.0 mi NW 10.4 mph - N/A   Overcast
3:13 PM 37.4 °F 28.9 °F 37.4 °F 100% 29.70 in 9.0 mi NW 13.8 mph - N/A Rain Light Rain
3:14 PM 37.4 °F 28.9 °F 37.4 °F 100% 29.70 in 9.0 mi NW 13.8 mph 19.6 mph N/A Rain Light Rain
3:16 PM 37.4 °F 28.5 °F 35.6 °F 93% 29.70 in 9.0 mi NW 15.0 mph - N/A   Overcast
3:24 PM 37.4 °F 28.2 °F 35.6 °F 93% 29.71 in 9.0 mi NW 16.1 mph - N/A   Overcast
3:50 PM 35.6 °F 28.0 °F 35.6 °F 100% 29.75 in 9.0 mi NW 10.4 mph 21.9 mph N/A   Overcast
3:53 PM 35.6 °F 27.1 °F 35.6 °F 100% 29.75 in 9.0 mi NW 12.7 mph 19.6 mph N/A   Mostly Cloudy
4:00 PM 35.6 °F 28.0 °F 35.6 °F 100% 29.79 in 9.0 mi NW 10.4 mph 17.3 mph N/A   Overcast
5:00 PM 35.6 °F 27.1 °F 33.8 °F 93% 29.85 in 9.0 mi NW 12.7 mph 20.7 mph N/A   Overcast
5:55 PM 35.6 °F 28.0 °F 33.8 °F 93% 29.89 in 9.0 mi NW 10.4 mph 21.9 mph N/A   Overcast
6:00 PM 35.6 °F 28.0 °F 33.8 °F 93% 29.92 in 9.0 mi NW 10.4 mph - N/A   Overcast
6:37 PM 37.4 °F 29.8 °F 32.0 °F 81% 29.95 in 9.0 mi NW 11.5 mph 19.6 mph N/A   Overcast
7:00 PM 37.4 °F 30.3 °F 32.0 °F 81% 30.02 in 9.0 mi NW 10.4 mph 17.3 mph N/A   Overcast
8:00 PM 36 °F - 31 °F 76% 30.10 in 9 mi WNW 8.1 mph - -   Clear
8:00 PM 37.4 °F 32.1 °F 32.0 °F 81% 30.10 in 9.0 mi NW 6.9 mph - N/A   Overcast
9:00 PM 35.6 °F 28.6 °F 30.2 °F 81% 30.12 in 9.0 mi NNW 9.2 mph - N/A   Overcast
10:00 PM 35.6 °F 29.9 °F 32.0 °F 87% 30.15 in 9.0 mi NNW 6.9 mph - N/A   Overcast
11:00 PM 33.8 °F 27.7 °F 32.0 °F 93% 30.17 in 9.0 mi NNW 6.9 mph - N/A   Overcast